CST,Max TemperatureF,Mean TemperatureF,Min TemperatureF,Max Dew PointF,MeanDew PointF,Min DewpointF,Max Humidity, Mean Humidity, Min Humidity, Max Sea Level PressureIn, Mean Sea Level PressureIn, Min Sea Level PressureIn, Max VisibilityMiles, Mean VisibilityMiles, Min VisibilityMiles, Max Wind SpeedMPH, Mean Wind SpeedMPH, Max Gust SpeedMPH,PrecipitationIn, CloudCover, Events, WindDirDegrees
2014-1-1,20,14,7,16,13,4,92,86,80,30.37,30.27,30.18,4,1,0,20,11,28,T,8,Fog-Snow,28
2014-1-2,20,10,0,16,10,-8,84,75,66,30.43,30.20,30.13,10,4,1,18,10,25,0.00,7,Snow,5
2014-1-3,19,5,-9,12,2,-12,92,77,61,30.48,30.14,29.88,10,7,2,33,14,41,0.00,1,Snow,205
2014-1-4,28,24,19,27,23,12,100,84,67,30.05,29.90,29.81,10,3,1,30,14,38,0.00,7,Snow,230
2014-1-5,24,10,-4,18,4,-14,88,72,56,30.11,30.03,29.95,10,4,0,22,13,33,0.00,8,Rain-Snow,329
2014-1-6,-5,-10,-16,-17,-22,-26,70,62,54,30.31,30.22,30.07,10,9,4,22,12,32,0.00,1,,268
2014-1-7,2,-6,-14,-6,-15,-22,86,72,57,30.38,30.34,30.29,10,10,9,17,7,23,0.00,0,,238
2014-1-8,13,0,-14,-4,-9,-17,92,70,48,30.59,30.49,30.38,10,10,8,8,3,10,0.00,0,,285
2014-1-9,25,5,-15,22,10,-17,96,84,72,30.60,30.36,30.14,10,5,2,18,6,24,T,6,,154
2014-1-10,39,32,25,39,31,23,100,94,88,30.17,29.88,29.51,10,2,0,23,9,29,1.02,8,Fog-Rain,164
2014-1-11,38,34,30,37,31,25,100,88,75,29.78,29.51,29.39,10,7,0,17,9,28,0.01,8,Fog-Rain,252
2014-1-12,41,34,26,32,27,24,92,78,64,29.86,29.74,29.58,10,8,4,25,14,35,0.00,3,,203
2014-1-13,44,35,25,33,29,20,89,74,58,29.76,29.62,29.53,10,10,10,20,8,25,0.00,1,,234
2014-1-14,35,28,20,31,22,15,96,76,56,29.88,29.71,29.54,10,4,1,23,11,33,T,7,Snow,239
2014-1-15,20,16,11,16,9,5,84,73,61,30.10,29.98,29.84,10,8,1,21,10,28,T,5,Snow,266
2014-1-16,33,25,17,31,23,8,92,80,67,29.78,29.56,29.44,10,6,1,25,15,32,0.01,7,Snow,214
2014-1-17,17,14,11,13,8,2,88,75,61,29.99,29.89,29.72,10,7,1,17,7,25,T,7,Snow,257
2014-1-18,21,14,7,19,12,4,100,84,67,29.96,29.87,29.75,10,6,0,10,5,14,T,6,Fog-Snow,185
2014-1-19,36,23,10,28,18,7,92,78,63,29.87,29.68,29.54,10,9,6,23,11,30,0.00,1,,233
2014-1-20,35,22,8,26,17,4,92,81,70,30.14,29.94,29.61,10,5,1,18,9,29,0.01,8,Snow,354
2014-1-21,9,2,-6,1,-7,-9,80,65,50,30.37,30.27,30.10,10,9,2,22,9,33,T,2,Rain-Snow,315
2014-1-22,12,5,-2,7,0,-12,88,74,59,30.23,29.99,29.85,10,5,0,17,9,25,0.02,7,Fog-Snow,259
2014-1-23,9,2,-6,-4,-9,-14,71,63,55,30.64,30.48,30.24,10,9,2,17,10,26,T,2,Snow,283
2014-1-24,28,10,-8,25,10,-15,92,73,53,30.54,29.79,29.41,10,5,1,35,21,49,T,6,Rain-Snow,220
2014-1-25,31,18,4,30,11,-8,92,66,39,29.89,29.56,29.35,10,7,1,20,10,31,T,4,Rain-Snow,273
2014-1-26,28,16,4,19,7,-5,88,67,46,29.83,29.57,29.42,10,5,0,25,10,36,0.00,6,Fog-Rain-Snow,232
2014-1-27,6,-2,-10,-4,-14,-19,71,58,45,30.48,30.20,29.77,10,10,7,23,10,39,0.00,2,Rain,278
2014-1-28,2,-5,-13,-8,-15,-20,72,62,51,30.48,30.40,30.28,10,10,10,16,8,23,0.00,0,,239
2014-1-29,22,11,-1,6,-2,-9,72,57,42,30.26,30.17,29.99,10,10,10,26,12,37,0.00,0,,217
2014-1-30,31,26,21,26,18,6,85,66,47,29.98,29.75,29.62,10,6,0,33,19,43,T,6,Fog-Rain-Snow,210
2014-1-31,26,19,12,17,7,1,81,69,56,30.19,30.13,29.96,10,10,8,13,4,17,0.00,2,,285